This demonstration page uses our WeatherBlox Daily Observations layout. Learn more.

Left ArrowRight Arrow

41.86663, -103.66717

Hourly Observations for June 28, 2016

Temp ( °F °C ) Dew Point ( °F °C ) Humidity (%) Winds ( mph kmh ) Pressure ( in mb ) Visibility ( mi km ) Precip ( " mm )
12:03 am 00:03 Partly Cloudy 64 18 57 14 78 78 ESE 14 22 30.18 1022 10 16 0.00 0.00
12:53 am 00:53 Clear 63 17.2 58 14.4 84 84 SE 10 17 30.20 1023 10 16 0.00 0.03
1:53 am 01:53 Clear 63 17.2 58 14.4 84 84 SE 9 15 30.18 1022 10 16 0.00 0.00
2:53 am 02:53 Clear 62 16.7 57 13.9 84 84 SE 7 11 30.15 1021 10 16 0.00 0.00
3:53 am 03:53 Clear 61 16.1 57 13.9 87 87 E 6 9 30.14 1021 10 16 0.00 0.00
4:53 am 04:53 Clear 61 16.1 57 13.9 87 87 E 6 9 30.15 1021 10 16 0.00 0.00
5:53 am 05:53 Sunny 61 16.1 58 14.4 90 90 ENE 7 11 30.16 1021 8 13 0.00 0.00
6:53 am 06:53 Sunny 66 18.9 60 15.6 81 81 ENE 5 7 30.16 1021 8 13 0.00 0.00
7:53 am 07:53 Sunny 70 21.1 61 16.1 73 73 Calm 30.16 1021 10 16 0.00 0.00
8:53 am 08:53 Sunny 73 22.8 62 16.7 69 69 S 3 6 30.15 1021 10 16 0.00 0.00
9:53 am 09:53 Sunny 77 25 63 17.2 62 62 VRB 5 7 30.12 1020 10 16 0.00 0.00
10:53 am 10:53 Sunny 82 27.8 60 15.6 47 47 S 10 17 30.09 1019 10 16 0.00 0.00
11:53 am 11:53 Sunny 86 30 59 15 40 40 SSE 8 13 30.08 1019 10 16 0.00 0.00
12:53 pm 12:53 Sunny 89 31.7 58 14.4 35 35 SSE 10 17 30.04 1017 10 16 0.00 0.00
1:53 pm 13:53 Sunny 93 33.9 55 12.8 28 28 SE 14 22 30.01 1016 10 16 0.00 0.00
2:53 pm 14:53 Sunny 91 32.8 53 11.7 27 27 SE 14 22 29.98 1015 10 16 0.00 0.00
3:53 pm 15:53 Sunny 94 34.4 49 9.4 21 21 SSE 16 26 29.92 1013 10 16 0.00 0.00
4:53 pm 16:53 Sunny 91 32.8 48 8.9 23 23 SE 14 22 29.89 1012 10 16 0.00 0.00
5:35 pm 17:35 Partly Cloudy with Nearby Thunderstorms 88 31.1 52 11.1 29 29 SE 10 17 29.74 1007 10 16 0.00 0.00
5:53 pm 17:53 Partly Cloudy with Thunderstorms 87 30.6 51 10.6 29 29 SSE 9 15 29.91 1013 10 16 0.00 0.00
6:07 pm 18:07 Mostly Cloudy with Strong Thunderstorms 69 20.6 58 14.4 68 68 W 14 22 29.94 1014 2 3 0.05 1.27
6:17 pm 18:17 Mostly Cloudy with Thunderstorms 69 20.6 58 14.4 68 68 NW 13 20 29.94 1014 3 5 0.20 5.08
6:29 pm 18:29 Very Windy with Storms Likely 65 18.3 57 13.9 76 76 N 43 69 30.03 1017 7 11 0.22 5.59
6:37 pm 18:37 Windy with Storms Likely 61 16.1 56 13.3 84 84 NNE 31 50 30.09 1019 6 10 0.22 5.59
6:49 pm 18:49 Cloudy with Nearby Thunderstorms 61 16 55 13 83 83 NNE 25 41 30.06 1018 10 16 0.24 6.10
6:53 pm 18:53 Cloudy 61 16.1 55 12.8 81 81 NE 23 37 30.09 1019 10 16 0.24 6.10
7:53 pm 19:53 Sunny 64 17.8 55 12.8 73 73 NE 24 39 30.06 1018 10 16 0.00 0.03
8:53 pm 20:53 Clear 63 17.2 54 12.2 73 73 SSE 14 22 30.10 1019 10 16 0.00 0.00
9:53 pm 21:53 Clear 62 16.7 54 12.2 75 75 SSE 8 13 30.08 1019 10 16 0.00 0.00
10:53 pm 22:53 Mostly Clear 63 17.2 55 12.8 76 76 S 5 7 30.10 1019 10 16 0.00 0.00
11:53 pm 23:53 Clear 60 15.6 54 12.2 80 80 S 8 13 30.09 1019 10 16 0.00 0.00

Powered by AerisWeather